Location: Devore Heights
(34.2372°N, 117.4156°W)
Time: 03:21:15
(UTC+00:00)

S-56A Canister/Altair - Pass Details

Date: 17 September 2024
Orbit: 636 x 2487 km, 38.9° (Epoch: 05 October)

Event Time Altitude Azimuth Distance (km) Brightness Sun altitude
Rises 02:42:17 0° 265° (W) 3,148 12.4 -10.8°
Reaches altitude 10° 02:44:24 10° 268° (W) 2,350 11.5 -11.2°
Maximum altitude 02:49:49 66° 351° (N) 1,075 8.3 -12.3°
Enters shadow 02:57:18 12° 72° (ENE) 3,226 10.2 -13.8°
Drops below altitude 10° 02:57:52 10° 73° (ENE) 3,427 - -13.9°
Sets 03:01:33 0° 76° (ENE) 4,717 - -14.7°
